Wetbulb
58.00 53.00 50.92 49.14 43.01 38.91 36.05 37.94 41.27 45.74 54.53 57.52 59.51 59.09 57.58 58.26 56.93 52.16 67.72 69.96 70.85 70.83 71.86 72.18 72.14 72.53 72.49 72.81 72.78 73.24 73.66 73.75 73.57 73.52 73.68 73.86 73.86 73.88 73.66 73.68 73.68 74.28 74.44 73.59 73.47 73.52 73.64 73.26 71.74
57.20 51.91 49.09 44.26 38.68 33.55 36.37 40.06 40.75 44.71 58.00 60.31 59.91 59.40 58.45 56.90 63.79 66.07 66.51 70.33 70.81 70.80 71.09 71.83 72.16 72.22 72.22 72.22 72.48 72.90 73.56 73.56 73.65 73.51 73.32 73.78 73.80 73.66 73.31 72.84 73.08 74.04 74.40 73.77 73.97 73.84 73.74 72.63 70.96
52.34 50.84 46.11 40.45 34.96 35.33 35.98 40.43 43.92 55.74 59.48 55.31 56.22 57.36 58.69 58.59 66.05 66.98 68.75 70.40 70.37 69.82 70.89 71.47 71.50 71.57 71.99 71.76 72.04 72.30 72.53 72.72 72.80 73.26 73.31 73.22 73.44 73.54 73.50 72.64 72.80 73.84 73.96 73.49 73.36 73.47 73.12 71.53 70.12
50.39 47.32 44.51 39.28 36.63 39.99 40.47 41.90 46.21 53.56 55.17 55.54 55.28 54.02 59.74 64.87 66.66 68.59 69.55 69.86 69.04 69.43 69.94 69.55 70.26 71.53 72.15 72.11 71.92 71.97 71.84 71.57 71.87 72.37 73.16 73.30 73.22 73.40 73.08 72.40 72.80 73.74 73.77 73.39 73.34 73.93 72.73 70.33 69.45
46.94 43.48 38.54 36.39 37.26 41.85 43.61 45.25 49.46 51.15 52.51 53.40 54.10 55.00 57.74 63.16 64.20 65.02 67.00 68.89 67.89 66.66 67.02 68.52 69.28 70.34 71.12 72.38 72.42 72.15 71.78 71.32 71.58 71.84 72.38 72.85 73.28 73.32 72.61 72.06 72.18 72.96 73.78 74.16 73.84 73.16 71.84 70.55 69.46
44.76 42.48 36.33 34.84 37.91 43.05 44.38 45.76 49.18 51.10 50.67 52.20 57.51 52.60 51.70 62.08 59.62 59.73 60.24 59.63 60.81 61.34 62.58 63.97 67.84 69.61 70.05 70.21 70.06 69.69 70.11 70.68 70.98 71.53 71.93 72.49 72.47 72.25 72.43 72.18 71.81 71.66 71.94 72.15 71.21 71.30 70.71 70.96 70.01
42.33 39.26 36.08 36.67 38.50 40.80 44.28 46.80 49.35 49.28 48.88 49.73 52.91 47.93 52.90 58.62 58.69 57.66 56.73 56.84 57.85 59.05 60.55 61.78 63.84 67.10 69.01 68.43 68.92 68.74 69.19 69.10 69.26 69.13 69.68 69.86 70.29 70.72 71.26 71.28 71.15 71.24 71.36 71.24 71.11 70.29 69.22 69.37 70.07
42.43 39.91 35.93 35.36 37.46 40.00 45.38 47.45 48.51 48.05 44.94 52.11 50.14 47.52 52.53 57.22 57.19 55.35 54.27 54.32 55.54 56.19 57.19 59.66 62.55 64.21 66.74 68.52 68.61 67.24 66.72 66.59 66.54 67.06 67.39 68.16 68.92 69.53 69.28 68.92 68.91 68.79 69.11 69.30 69.66 69.17 69.19 69.59 68.88
40.94 36.06 32.93 35.81 38.00 41.91 45.34 43.79 46.84 48.04 48.44 49.69 51.63 50.51 56.02 56.75 55.14 52.34 51.01 51.39 52.88 54.63 53.87 56.26 59.12 62.08 64.65 67.01 67.34 65.56 63.80 62.92 62.44 63.31 64.26 63.99 64.17 65.07 66.76 67.30 67.08 66.20 67.01 67.46 67.54 67.70 67.71 67.71 68.02
38.77 34.19 36.83 40.12 41.90 42.43 43.39 42.08 45.57 46.01 46.78 49.13 51.64 56.08 55.97 54.81 52.95 50.07 48.68 48.40 49.57 50.74 52.17 53.78 56.76 59.37 62.14 65.45 64.58 62.44 61.14 58.86 57.26 57.99 59.02 60.73 61.02 62.45 64.02 65.74 64.26 64.19 64.94 65.81 65.94 66.08 66.34 66.74 68.00
36.25 36.79 38.72 41.57 43.75 43.28 41.11 42.28 44.48 46.43 44.61 48.81 50.96 51.45 51.82 51.49 49.73 48.59 48.00 47.87 47.91 48.68 49.71 50.86 54.33 56.37 57.95 60.22 60.40 58.66 57.51 56.71 55.51 54.63 55.95 56.52 57.31 58.93 60.76 59.74 59.20 60.74 61.88 63.34 64.90 64.24 64.92 64.77 65.42
37.09 41.06 40.88 42.09 43.40 41.78 40.91 41.70 44.24 44.14 47.29 50.66 53.66 52.52 50.93 49.97 48.76 47.37 46.70 46.61 46.57 46.77 47.09 48.71 51.60 54.59 54.81 56.49 56.59 54.98 53.90 52.57 51.42 51.52 52.71 53.51 54.70 55.06 55.57 54.92 55.38 55.93 56.61 56.85 59.60 60.13 64.03 64.01 64.79
38.86 40.34 43.93 43.96 43.96 42.47 43.30 41.89 42.74 43.83 46.94 51.58 51.47 51.29 50.03 48.96 47.50 46.93 46.41 45.72 45.42 45.31 45.61 46.65 49.99 53.18 54.27 53.48 51.68 50.38 49.15 49.07 49.04 49.39 49.87 51.10 51.90 51.81 52.38 51.44 51.83 52.30 52.63 53.32 54.17 54.69 56.19 61.74 63.27
41.38 41.83 43.04 43.32 42.81 42.36 41.83 41.74 41.59 44.08 48.05 49.94 50.39 49.29 49.03 48.04 46.53 45.36 45.06 44.20 44.51 44.78 44.86 45.99 47.44 50.81 52.53 50.61 48.86 47.95 47.74 47.31 47.40 47.41 47.94 48.26 47.70 47.64 47.06 46.69 47.19 48.09 49.29 49.29 50.47 50.83 52.40 54.41 57.70
42.78 39.54 41.03 41.64 41.40 42.34 42.92 40.73 41.29 44.03 48.20 48.06 48.07 47.34 46.94 47.23 46.35 44.89 44.22 43.45 43.55 44.00 44.97 45.27 46.12 48.28 48.80 47.76 47.45 46.61 46.85 46.41 45.74 45.86 46.05 46.30 46.21 45.11 44.40 43.57 43.71 44.91 46.02 45.72 46.58 47.20 49.31 50.59 52.72
37.74 36.77 33.53 38.34 40.26 41.27 42.36 38.04 42.04 45.18 47.15 45.51 45.11 44.91 45.42 45.47 45.72 44.47 44.08 43.60 42.65 43.11 43.65 44.36 47.18 45.74 46.28 45.90 45.48 45.21 44.73 44.50 44.23 43.99 42.95 42.51 43.23 43.58 41.99 41.18 40.95 42.93 42.92 42.68 42.83 43.44 44.33 45.91 48.59
33.68 29.15 32.26 36.62 40.16 39.02 38.38 36.11 39.16 43.80 47.18 45.59 43.83 43.79 43.89 42.99 42.88 43.37 43.61 42.68 42.36 42.20 42.46 42.72 43.65 44.31 44.62 44.29 44.23 42.89 42.22 42.09 41.97 40.21 39.91 40.61 40.32 40.70 39.86 39.21 39.54 41.28 40.65 40.24 40.43 40.54 41.97 42.59 42.77
29.85 31.56 30.31 32.01 36.30 36.95 34.54 37.27 40.52 41.09 44.37 45.07 42.14 41.74 42.24 42.11 42.02 43.13 43.00 42.49 42.33 41.83 41.83 42.35 43.02 43.35 43.50 43.43 42.68 41.72 40.75 40.31 40.01 38.51 38.28 38.32 38.80 38.60 38.07 38.13 38.31 39.35 38.34 37.90 38.45 38.07 39.90 41.88 40.23
35.36 33.34 32.66 34.06 38.93 37.08 37.07 36.36 39.71 38.04 39.21 41.65 40.94 41.05 41.07 40.90 41.73 42.53 42.41 42.24 40.97 40.62 40.65 40.83 41.35 41.37 41.68 40.96 39.87 38.69 37.16 37.23 37.28 37.47 37.41 37.00 37.21 37.67 36.45 36.73 36.96 37.62 36.94 36.53 37.52 37.20 37.35 38.65 39.51
36.62 33.91 33.40 36.59 39.48 38.16 36.40 36.06 38.99 38.29 39.23 42.67 42.10 41.76 41.11 39.96 40.86 41.67 41.56 40.90 39.33 39.12 39.71 39.71 39.32 39.51 39.44 39.65 39.22 38.24 36.61 36.21 36.12 36.02 36.14 36.33 36.43 36.60 36.72 35.56 35.60 36.00 35.97 35.81 36.18 36.05 35.98 36.78 38.36
35.18 33.43 33.52 34.74 37.27 35.65 33.64 33.43 35.96 40.28 39.39 40.47 43.68 44.07 43.10 41.56 40.60 41.21 40.96 38.24 37.61 37.57 37.89 37.98 37.40 37.53 38.18 38.48 38.32 37.19 36.25 35.35 34.24 33.58 33.94 34.82 35.33 35.79 35.58 34.82 34.66 34.69 35.18 34.21 34.56 35.28 35.27 34.20 36.41
32.45 38.74 38.65 36.35 33.33 29.09 33.93 28.83 33.50 36.06 38.15 38.21 40.73 40.90 41.36 41.41 41.62 41.49 39.08 36.59 36.86 36.59 37.14 37.05 37.18 36.38 36.67 36.26 35.00 33.74 32.42 31.54 32.42 32.48 32.86 33.46 34.33 34.23 34.61 33.82 32.86 32.52 33.33 32.77 33.98 35.69 34.87 34.86 33.69
36.00 40.42 37.75 36.21 32.23 29.93 30.36 28.52 30.12 34.29 34.77 37.26 36.04 40.42 41.01 41.08 40.95 39.73 37.85 37.05 36.75 36.51 35.50 35.39 35.60 35.29 34.96 34.46 33.90 33.14 32.02 32.20 32.15 31.90 31.66 32.37 33.08 33.38 33.40 32.57 31.48 30.97 31.77 32.19 33.27 33.13 32.67 33.60 33.03
39.60 35.57 33.89 32.41 30.59 24.99 30.71 29.95 33.98 31.63 34.04 36.82 39.04 39.94 40.47 40.15 40.05 39.43 38.11 37.83 36.18 35.52 34.94 34.53 34.69 33.80 33.98 33.56 33.13 32.24 30.86 30.46 30.12 30.23 30.39 30.97 31.30 31.84 31.30 31.26 30.70 30.39 30.78 31.24 31.04 31.03 30.73 30.47 31.58
35.67 31.68 25.14 23.39 22.50 24.17 32.56 29.23 34.65 35.32 39.78 40.78 41.01 38.76 40.17 40.50 39.06 37.36 36.96 36.59 36.07 35.25 34.86 34.36 34.42 33.44 33.34 32.77 32.23 31.52 31.14 30.49 29.86 29.64 29.64 29.17 29.30 29.27 29.00 28.93 28.90 29.28 29.85 30.14 29.57 28.83 28.90 28.05 28.36
33.81 33.87 26.33 21.91 21.67 23.41 30.01 25.43 29.99 40.31 41.06 40.54 39.93 39.74 40.15 39.20 38.83 38.09 38.17 37.06 36.89 36.41 35.63 35.97 34.95 34.28 34.19 33.79 32.19 32.91 32.51 31.37 31.44 30.45 29.46 29.61 28.63 28.25 27.39 27.17 28.15 28.70 28.93 28.63 27.54 26.78 27.00 26.49 27.18
32.48 30.14 36.24 29.95 28.80 24.76 25.80 29.21 36.21 40.70 39.78 39.46 38.65 38.64 37.78 38.50 38.75 38.79 38.58 37.68 37.48 36.97 37.23 36.56 35.76 35.11 34.61 33.41 32.58 31.78 32.05 31.65 30.85 30.68 29.89 28.62 28.08 29.14 25.87 26.20 26.37 27.36 27.90 27.17 26.29 25.68 25.41 25.48 25.98
34.39 36.82 28.85 28.60 23.85 22.36 23.99 25.26 27.17 35.66 37.78 38.90 37.87 36.89 37.55 38.95 39.37 40.07 39.22 38.44 38.80 38.30 37.76 36.90 36.14 34.61 33.90 33.45 32.80 32.05 31.35 31.34 30.10 29.50 28.26 27.24 26.02 26.11 25.75 25.72 25.99 26.35 26.88 26.17 25.39 24.41 25.29 24.60 25.09
33.70 32.07 32.06 32.02 28.69 23.46 23.01 24.75 32.24 36.78 39.34 39.16 38.59 39.13 38.45 39.05 40.10 40.85 39.67 39.36 38.96 38.41 37.22 36.15 35.13 34.45 34.21 34.51 33.77 32.25 31.77 30.46 29.37 28.38 27.51 26.36 25.94 26.14 25.72 25.74 26.11 25.78 23.80 23.90 23.42 23.86 23.83 23.98 24.05
35.78 32.82 32.95 27.39 25.01 27.09 25.39 24.89 37.41 38.27 40.83 42.09 41.35 41.53 40.92 40.61 40.52 40.26 39.20 38.43 37.50 36.97 36.66 36.13 34.67 34.29 35.05 34.19 32.69 32.66 31.68 29.48 28.10 27.57 27.13 26.30 25.12 26.11 25.72 26.11 25.75 25.64 24.78 23.60 22.89 22.54 22.72 22.52 22.91
MSLP
1010.16 1010.05 1010.40 1010.94 1012.26 1012.27 1011.62 1010.91 1009.78 1009.68 1009.46 1009.10 1009.32 1009.72 1010.49 1011.03 1011.41 1012.01 1011.63 1011.70 1011.67 1011.88 1012.14 1012.32 1012.44 1012.49 1013.05 1013.32 1013.29 1013.40 1013.45 1013.50 1013.57 1013.68 1013.83 1013.97 1014.20 1014.40 1014.55 1014.73 1014.81 1014.84 1014.91 1015.08 1015.27 1015.30 1015.43 1015.71 1015.84
1010.17 1010.15 1010.66 1011.57 1012.56 1012.68 1011.45 1010.40 1009.76 1009.20 1009.19 1009.13 1009.34 1009.97 1010.39 1011.27 1011.32 1011.57 1011.71 1011.96 1012.01 1012.08 1012.29 1012.48 1012.83 1012.28 1012.93 1013.42 1013.58 1013.61 1013.78 1013.84 1013.98 1014.07 1014.15 1014.22 1014.33 1014.47 1014.64 1014.85 1015.05 1015.14 1015.17 1015.20 1015.32 1015.30 1015.41 1015.66 1015.90
1010.11 1010.09 1011.22 1012.47 1013.05 1012.53 1011.32 1009.96 1009.50 1009.41 1009.23 1009.28 1009.80 1010.24 1010.74 1011.62 1011.59 1011.63 1011.99 1012.17 1012.23 1012.44 1012.65 1013.02 1013.21 1013.07 1013.50 1013.17 1013.68 1013.65 1013.77 1013.84 1014.06 1014.29 1014.46 1014.51 1014.58 1014.65 1014.69 1014.84 1014.99 1015.20 1015.34 1015.44 1015.51 1015.54 1015.59 1015.69 1015.91
1010.39 1011.04 1012.52 1012.32 1012.64 1011.48 1010.68 1009.87 1009.41 1009.55 1009.57 1009.57 1009.90 1010.86 1011.27 1012.03 1011.89 1012.07 1012.60 1012.71 1012.79 1013.05 1013.24 1013.42 1013.57 1013.63 1013.88 1013.32 1013.88 1013.79 1013.93 1014.10 1014.17 1014.30 1014.43 1014.59 1014.72 1014.83 1014.94 1015.07 1015.03 1015.06 1015.19 1015.35 1015.53 1015.68 1015.79 1015.91 1016.04
1010.99 1012.06 1013.10 1013.14 1012.42 1011.29 1010.34 1009.42 1009.41 1009.77 1009.78 1009.98 1010.33 1011.49 1012.28 1013.06 1013.10 1013.06 1013.30 1013.33 1013.41 1013.76 1013.90 1013.94 1014.01 1013.88 1014.02 1013.93 1014.01 1014.15 1014.35 1014.47 1014.58 1014.69 1014.74 1014.78 1014.90 1015.00 1015.10 1015.22 1015.29 1015.28 1015.24 1015.13 1015.26 1015.54 1015.71 1015.83 1016.03
1011.92 1012.87 1013.62 1013.30 1012.06 1010.91 1010.00 1009.31 1009.36 1009.75 1010.06 1010.34 1010.90 1011.74 1013.56 1014.31 1013.85 1014.21 1014.06 1014.10 1014.10 1014.25 1014.44 1014.45 1014.34 1014.21 1014.13 1014.23 1014.47 1014.52 1014.62 1014.77 1014.90 1015.01 1015.12 1015.12 1015.12 1015.16 1015.19 1015.25 1015.26 1015.27 1015.32 1015.25 1015.40 1015.32 1015.51 1015.70 1015.80
1012.32 1013.29 1013.59 1012.93 1011.86 1010.65 1009.71 1009.32 1009.40 1009.74 1010.27 1010.48 1010.72 1012.35 1014.10 1014.70 1014.88 1014.89 1014.96 1014.84 1014.61 1014.54 1014.44 1014.43 1014.41 1014.32 1014.29 1014.32 1014.51 1014.79 1014.98 1015.07 1015.14 1015.20 1015.26 1015.24 1015.32 1015.32 1015.37 1015.41 1015.28 1015.13 1015.22 1015.22 1015.31 1015.27 1015.39 1015.52 1015.50
1012.37 1013.40 1013.59 1012.65 1011.59 1010.35 1009.37 1009.06 1009.20 1009.68 1010.22 1010.36 1010.87 1012.36 1014.13 1014.72 1015.17 1015.28 1015.46 1015.43 1015.13 1015.00 1014.96 1014.95 1014.82 1014.67 1014.60 1014.63 1014.75 1015.04 1015.28 1015.37 1015.45 1015.49 1015.52 1015.51 1015.53 1015.53 1015.55 1015.57 1015.67 1015.47 1015.23 1015.03 1015.01 1015.03 1015.10 1015.25 1015.31
1012.20 1013.34 1013.70 1012.34 1011.23 1010.08 1009.46 1009.34 1009.33 1009.71 1010.18 1010.96 1011.97 1012.22 1012.97 1014.44 1015.18 1015.48 1015.76 1015.78 1015.64 1015.60 1015.59 1015.51 1015.35 1015.14 1014.91 1014.96 1015.22 1015.44 1015.69 1015.69 1015.77 1015.67 1015.64 1015.72 1015.99 1016.02 1015.99 1016.02 1015.96 1015.76 1015.54 1015.46 1015.34 1015.12 1014.93 1014.92 1014.99
1012.46 1013.35 1012.71 1011.39 1010.35 1009.86 1009.37 1009.43 1009.48 1010.02 1010.85 1011.95 1012.83 1013.46 1013.78 1014.74 1015.39 1015.74 1016.08 1016.32 1016.39 1016.38 1016.23 1015.98 1015.55 1015.40 1015.33 1015.46 1015.67 1015.95 1016.28 1016.48 1016.56 1016.34 1016.11 1016.13 1016.35 1016.45 1016.50 1016.37 1016.34 1016.16 1015.95 1015.48 1015.52 1015.26 1015.21 1014.93 1014.64
1012.43 1012.49 1012.02 1010.90 1010.14 1009.72 1009.52 1009.57 1009.67 1010.09 1011.13 1011.27 1012.13 1013.63 1014.29 1014.97 1015.61 1015.97 1016.39 1016.68 1016.82 1016.91 1016.81 1016.71 1016.49 1016.23 1016.03 1016.15 1016.27 1016.54 1016.85 1017.05 1017.08 1017.03 1016.72 1016.53 1016.72 1016.95 1017.09 1017.05 1017.00 1016.70 1016.42 1015.94 1015.79 1015.65 1015.42 1015.17 1014.91
1012.44 1011.87 1011.68 1010.76 1010.44 1009.97 1009.87 1009.66 1010.01 1010.35 1010.43 1010.67 1012.28 1012.84 1013.97 1014.99 1015.76 1016.15 1016.58 1016.88 1016.89 1016.97 1017.13 1017.13 1017.00 1016.84 1016.86 1016.92 1017.18 1017.38 1017.44 1017.71 1017.71 1017.73 1017.47 1017.01 1017.11 1017.23 1017.42 1017.62 1017.61 1017.43 1017.19 1016.80 1016.34 1016.16 1015.66 1015.34 1015.03
1012.12 1011.85 1011.53 1010.97 1010.35 1010.16 1009.95 1009.87 1010.16 1010.59 1011.11 1011.46 1012.63 1013.43 1014.13 1014.92 1015.64 1016.26 1016.64 1017.06 1017.17 1017.19 1017.37 1017.35 1017.24 1017.22 1017.27 1017.44 1017.72 1018.06 1018.37 1018.58 1018.65 1018.42 1018.28 1017.83 1017.83 1017.99 1017.97 1017.98 1017.91 1017.80 1017.81 1017.51 1017.10 1016.76 1016.19 1015.58 1015.23
1012.30 1012.23 1011.72 1011.20 1010.61 1010.22 1010.09 1010.15 1010.47 1010.96 1011.66 1012.36 1013.20 1013.98 1014.53 1015.17 1015.85 1016.52 1016.93 1017.23 1017.40 1017.52 1017.68 1017.70 1017.51 1017.43 1017.50 1018.01 1018.38 1018.67 1018.93 1019.18 1019.26 1019.37 1019.39 1019.20 1019.11 1019.00 1018.85 1018.85 1018.76 1018.47 1018.09 1017.92 1017.65 1017.37 1016.87 1016.34 1015.87
1012.59 1012.71 1011.93 1011.37 1010.76 1010.50 1010.35 1010.70 1010.73 1011.10 1012.10 1012.77 1013.59 1014.53 1015.39 1015.95 1016.50 1016.90 1017.22 1017.50 1017.67 1017.86 1017.88 1018.02 1017.96 1018.02 1018.16 1018.63 1018.99 1019.25 1019.38 1019.39 1019.67 1019.83 1019.71 1019.80 1019.95 1020.06 1020.00 1019.86 1019.65 1019.37 1018.90 1018.44 1017.85 1017.50 1017.09 1016.67 1016.16
1013.15 1013.22 1012.61 1011.30 1010.88 1010.62 1010.81 1010.40 1010.33 1010.94 1011.81 1013.07 1013.99 1014.82 1015.42 1016.10 1016.63 1017.11 1017.44 1017.76 1018.05 1018.19 1018.34 1018.29 1018.22 1018.39 1018.72 1019.09 1019.47 1019.66 1019.89 1020.05 1020.39 1020.79 1020.81 1020.56 1020.62 1020.68 1020.79 1020.67 1020.34 1019.95 1019.51 1019.02 1018.68 1018.18 1017.57 1017.13 1016.75
1014.19 1013.85 1013.03 1012.05 1010.95 1010.84 1011.04 1010.91 1010.82 1011.01 1011.73 1012.85 1013.89 1014.91 1015.78 1016.52 1017.23 1017.51 1017.67 1017.92 1018.30 1018.59 1018.73 1018.68 1018.56 1018.72 1019.19 1019.61 1020.03 1020.31 1020.54 1020.71 1021.05 1021.16 1021.43 1021.40 1021.38 1021.37 1021.20 1021.08 1020.96 1020.76 1020.13 1019.62 1019.49 1018.97 1018.49 1017.70 1017.15
1014.34 1014.21 1013.26 1012.44 1011.48 1011.35 1011.46 1011.15 1010.40 1011.33 1012.39 1012.99 1014.08 1015.09 1016.15 1016.83 1017.23 1017.66 1018.05 1018.47 1018.68 1018.92 1019.05 1019.06 1019.05 1019.24 1019.56 1019.97 1020.40 1020.75 1021.13 1021.24 1021.55 1021.74 1021.75 1021.70 1021.62 1021.87 1021.73 1021.68 1021.62 1020.92 1020.56 1020.58 1019.99 1019.47 1019.08 1018.44 1017.95
1013.75 1014.07 1013.75 1012.66 1011.74 1011.58 1011.42 1011.39 1010.77 1011.25 1012.20 1013.22 1014.28 1015.46 1016.26 1017.05 1017.62 1018.13 1018.62 1019.10 1019.38 1019.66 1019.74 1019.80 1019.72 1019.83 1020.01 1020.49 1020.93 1021.31 1022.07 1022.06 1022.37 1022.35 1022.13 1022.32 1022.16 1021.99 1022.02 1021.99 1021.85 1021.55 1021.29 1021.09 1020.54 1020.12 1019.61 1018.96 1018.40
1013.91 1013.84 1013.67 1012.81 1012.14 1011.96 1011.53 1011.43 1010.82 1010.90 1011.38 1011.94 1012.97 1014.60 1015.67 1016.90 1017.61 1018.26 1019.02 1019.45 1019.83 1020.32 1020.58 1020.51 1020.38 1020.30 1020.45 1020.74 1021.22 1021.65 1022.44 1022.99 1022.94 1022.79 1022.32 1022.28 1022.40 1022.42 1022.23 1022.18 1022.16 1021.95 1021.61 1021.26 1020.89 1020.73 1020.39 1019.93 1019.29
1013.68 1013.65 1013.51 1013.20 1012.52 1012.18 1012.05 1010.96 1010.59 1010.06 1010.18 1010.74 1012.00 1012.87 1014.48 1015.37 1016.79 1018.06 1019.01 1019.73 1020.18 1020.63 1020.87 1020.94 1020.81 1020.66 1020.97 1021.05 1021.25 1021.92 1022.72 1022.93 1023.17 1023.76 1023.29 1022.94 1022.66 1022.85 1022.78 1022.56 1022.61 1022.43 1022.19 1021.91 1021.43 1021.10 1020.89 1020.72 1020.04
1013.18 1012.86 1012.91 1013.31 1013.53 1013.27 1012.68 1011.24 1010.23 1010.06 1010.07 1010.51 1011.54 1012.81 1013.89 1015.11 1016.58 1017.90 1019.07 1019.95 1020.40 1020.93 1021.06 1020.99 1021.08 1021.39 1021.88 1022.02 1022.19 1022.49 1023.07 1023.71 1024.38 1024.51 1024.40 1023.90 1023.41 1023.24 1023.19 1022.84 1022.91 1023.08 1022.77 1022.42 1022.06 1021.60 1021.37 1021.16 1020.86
1012.22 1012.22 1012.62 1013.08 1013.56 1013.75 1013.25 1013.31 1010.07 1010.19 1010.44 1010.77 1011.69 1012.55 1013.76 1015.22 1016.47 1017.79 1019.07 1019.89 1020.62 1021.00 1021.33 1021.21 1021.31 1021.80 1022.23 1022.23 1022.44 1023.02 1023.70 1024.08 1024.30 1024.80 1024.67 1024.80 1024.47 1024.08 1023.69 1023.52 1023.72 1023.55 1023.37 1023.10 1022.49 1022.17 1022.18 1022.13 1021.86
1012.09 1012.67 1012.85 1013.57 1013.98 1013.78 1013.09 1013.44 1009.26 1010.63 1010.62 1010.82 1011.15 1012.59 1014.28 1015.76 1016.85 1017.87 1018.92 1019.86 1020.57 1021.06 1021.46 1021.33 1021.46 1022.33 1022.45 1022.42 1022.73 1023.34 1023.87 1024.50 1024.71 1025.07 1024.94 1024.79 1024.86 1024.78 1024.49 1024.32 1024.56 1024.38 1023.92 1023.44 1023.11 1022.91 1022.88 1023.27 1022.59
1011.93 1012.83 1013.79 1014.17 1014.44 1013.05 1012.53 1013.28 1010.62 1011.13 1011.27 1011.62 1012.09 1013.05 1014.18 1015.40 1016.67 1017.54 1018.41 1019.29 1020.01 1020.50 1020.59 1020.76 1020.81 1021.47 1022.08 1022.57 1023.07 1023.56 1023.85 1024.15 1024.24 1024.58 1025.13 1025.14 1025.13 1025.12 1025.19 1024.85 1025.20 1025.04 1024.74 1023.85 1023.66 1023.43 1023.91 1024.01 1023.36
1010.96 1012.16 1012.55 1012.83 1013.47 1013.04 1012.98 1012.33 1011.23 1011.63 1011.93 1012.22 1012.33 1013.35 1014.46 1015.47 1016.59 1017.17 1017.83 1018.51 1019.10 1019.77 1020.03 1020.09 1020.69 1021.05 1021.93 1022.73 1023.38 1023.59 1023.80 1024.25 1024.39 1024.58 1025.05 1024.97 1025.54 1025.53 1025.58 1025.58 1025.36 1024.95 1025.23 1024.40 1024.11 1024.12 1024.50 1024.59 1024.26
1010.44 1010.98 1011.44 1012.42 1013.04 1013.22 1012.48 1011.96 1011.68 1012.03 1012.58 1012.89 1013.55 1014.08 1014.99 1015.47 1016.42 1016.78 1017.32 1017.69 1018.30 1019.21 1019.83 1020.36 1020.74 1021.95 1022.05 1023.28 1023.51 1024.00 1024.09 1024.61 1025.18 1024.96 1025.47 1025.40 1025.52 1025.59 1026.42 1026.06 1026.00 1025.06 1025.21 1025.01 1024.96 1024.78 1024.31 1025.09 1024.74
1009.77 1010.43 1011.23 1012.39 1013.28 1013.19 1012.10 1011.98 1011.58 1012.06 1012.60 1012.94 1013.73 1014.33 1014.94 1015.28 1015.71 1015.88 1016.44 1017.32 1018.08 1019.15 1020.21 1020.73 1020.94 1021.80 1022.32 1023.09 1023.57 1023.79 1024.35 1025.18 1025.02 1025.19 1025.71 1025.81 1025.92 1025.84 1026.80 1026.55 1025.97 1025.83 1025.42 1025.25 1025.20 1025.10 1025.41 1025.19 1025.22
1010.53 1010.71 1011.54 1011.90 1012.91 1012.76 1012.63 1012.00 1011.31 1011.39 1012.03 1012.52 1013.28 1014.17 1014.47 1014.79 1015.11 1015.65 1016.22 1017.19 1017.91 1018.69 1019.63 1020.41 1020.95 1021.59 1022.17 1023.18 1023.70 1023.95 1024.60 1025.24 1025.47 1026.05 1025.95 1026.00 1026.38 1026.37 1026.71 1026.25 1026.22 1026.68 1025.90 1025.59 1025.76 1025.56 1025.71 1026.12 1025.58
1011.84 1012.12 1012.39 1012.80 1013.44 1013.46 1013.05 1012.28 1011.65 1011.78 1012.10 1012.30 1012.65 1012.85 1013.46 1014.24 1014.82 1015.51 1016.06 1016.80 1017.88 1018.68 1019.42 1020.54 1021.04 1021.81 1022.51 1023.52 1023.71 1024.07 1024.35 1025.46 1025.60 1026.12 1026.12 1026.29 1026.47 1026.76 1026.86 1026.48 1026.36 1026.57 1026.22 1026.31 1026.25 1026.22 1026.48 1026.37 1025.93
Wind_Speed
6 4 3 5 5 5 1 3 3 4 3 2 4 5 9 3 2 4 3 4 6 7 5 6 7 9 7 5 7 8 9 10 10 10 10 10 10 9 9 8 8 9 10 10 9 8 6 6 5
2 3 5 3 6 3 5 3 6 4 4 8 9 4 6 2 3 2 1 4 6 7 6 5 4 10 9 6 6 7 7 8 8 8 8 8 8 8 8 8 7 6 7 8 8 8 7 7 6
2 4 5 6 3 3 3 3 1 5 7 3 6 5 3 2 2 2 5 7 8 8 7 7 5 7 5 9 5 7 6 7 7 7 7 6 7 7 7 8 8 6 6 7 7 6 6 6 6
3 5 5 6 2 4 3 2 1 5 2 2 5 6 5 5 4 6 8 10 11 10 8 8 9 9 5 9 4 5 4 4 5 6 6 6 5 5 6 6 7 7 7 6 6 6 5 5 6
5 3 5 3 4 5 4 3 7 4 1 3 1 3 5 7 12 14 12 12 13 12 9 10 11 10 9 9 7 7 6 5 5 3 1 1 2 3 3 5 6 6 6 7 7 7 8 6 6
5 4 5 2 4 5 5 5 7 4 2 4 6 6 4 5 12 9 11 12 10 10 8 8 13 15 13 11 12 11 11 12 11 11 10 8 6 5 4 4 6 7 7 8 7 8 8 9 8
6 4 4 3 3 5 2 1 7 6 6 3 5 5 3 7 8 8 9 8 9 8 8 7 7 10 12 14 10 11 13 13 13 13 11 10 10 10 10 10 8 6 5 9 9 9 7 8 10
6 5 3 4 2 6 3 1 6 5 2 5 1 6 6 6 9 8 8 8 10 10 10 8 7 7 7 9 15 17 15 14 15 16 16 14 12 11 12 10 12 11 7 4 5 8 9 8 8
3 6 2 4 4 4 3 2 1 1 6 5 6 3 12 14 8 6 6 7 6 8 7 5 6 7 7 9 11 13 15 16 13 11 16 11 7 9 10 11 12 12 11 11 10 7 4 7 7
5 4 9 5 3 2 0 2 4 4 4 5 6 11 16 10 6 7 6 6 4 4 5 6 6 6 6 7 8 8 8 8 7 7 8 6 7 7 8 9 14 14 13 9 9 10 9 5 2
3 5 3 5 4 2 2 3 3 7 2 7 14 15 8 9 6 7 6 5 5 3 5 7 6 6 7 6 5 5 4 4 5 8 6 6 6 6 6 5 5 6 11 6 6 5 4 5 4
2 4 3 5 4 2 3 2 4 2 6 8 13 17 9 12 8 8 8 6 6 6 4 5 6 6 7 5 5 5 5 5 5 6 7 6 4 5 5 5 6 6 6 7 7 5 6 6 7
3 2 6 7 8 4 2 4 4 5 4 13 14 10 12 10 9 6 6 6 6 7 4 5 5 6 6 8 6 6 7 7 7 7 9 7 6 6 5 6 5 6 6 7 6 6 6 7 7
3 4 7 6 5 3 2 3 2 1 6 12 14 11 9 9 8 7 6 6 6 6 5 4 6 6 8 8 8 6 6 5 7 7 8 11 7 6 6 6 6 6 5 5 5 6 6 5 7
3 6 7 5 3 6 4 8 7 5 8 13 11 8 6 6 7 6 6 7 7 4 6 7 7 6 9 9 7 6 6 6 7 7 10 10 10 8 7 6 6 6 6 7 5 5 4 5 5
3 2 3 4 3 3 9 14 7 11 15 13 10 8 9 7 7 6 6 6 6 6 7 6 6 8 9 8 6 6 6 7 7 7 8 11 10 9 7 6 6 6 6 6 6 6 6 4 4
5 5 5 7 4 1 5 7 3 8 14 13 9 9 10 7 5 5 6 6 6 6 6 7 7 8 9 8 7 8 9 8 7 7 7 9 10 10 6 6 6 8 6 6 7 6 4 5 7
5 5 5 5 1 2 2 10 8 6 8 11 6 7 7 7 6 6 6 6 6 6 6 6 6 8 8 6 6 6 7 7 6 6 6 8 6 8 6 5 7 6 5 6 7 7 7 4 7
4 4 4 4 5 2 6 7 13 4 5 8 8 8 7 6 4 5 5 6 7 6 7 6 7 5 4 3 4 4 4 4 5 5 8 8 7 7 7 5 6 5 5 6 7 5 7 3 10
5 4 6 8 6 6 7 10 10 5 7 12 15 13 13 8 8 6 7 5 5 6 6 7 6 6 4 4 3 4 4 4 4 4 7 9 9 9 9 8 7 8 6 8 8 9 4 3 6
6 6 5 7 6 4 3 9 8 8 5 7 12 15 13 18 16 11 8 7 7 6 6 6 6 7 5 6 6 5 4 2 4 5 5 7 8 8 8 9 7 8 7 7 7 8 8 5 3
7 9 8 5 3 5 1 10 6 5 10 6 8 9 13 15 13 12 9 6 7 6 5 6 7 8 7 7 6 6 3 3 3 3 4 5 8 8 9 8 8 8 6 7 7 7 6 5 7
7 7 8 6 5 1 3 3 3 2 5 8 6 9 11 11 14 14 11 9 7 7 6 7 9 9 7 7 7 7 7 4 3 3 5 6 7 8 9 9 8 7 5 7 8 9 9 7 5
1 3 5 4 4 7 8 7 18 6 4 3 2 6 11 12 13 14 11 11 8 6 6 7 10 7 6 7 7 8 8 6 4 3 3 4 4 6 8 8 7 6 6 7 7 8 10 7 7
4 4 2 2 2 9 9 7 16 5 3 3 8 7 13 15 15 16 16 13 12 11 11 10 12 10 8 9 8 7 8 7 7 5 3 4 4 3 6 7 7 6 6 7 7 9 8 7 6
10 10 7 8 6 5 2 9 6 2 4 5 5 9 11 13 13 15 16 14 15 14 13 11 10 12 10 9 8 7 7 5 4 5 3 4 3 4 5 5 4 6 7 8 7 6 6 8 6
6 10 11 3 1 1 6 5 1 3 2 4 6 10 11 12 14 17 15 14 14 11 10 11 11 9 10 8 7 6 6 5 4 6 5 4 4 4 5 5 4 6 5 6 7 5 8 6 7
6 5 3 1 9 13 4 4 5 4 6 4 6 7 9 11 14 16 14 13 11 10 8 8 10 10 10 9 7 7 6 4 5 6 5 5 5 5 4 4 5 6 6 6 5 7 6 7 6
1 4 2 3 3 8 9 7 5 8 8 9 7 7 10 14 15 13 11 11 11 10 10 10 10 11 10 9 8 8 7 6 6 5 5 5 5 4 3 5 5 5 6 7 7 6 8 6 6
4 3 3 5 6 2 2 6 5 3 1 3 5 11 13 12 9 7 9 11 11 10 10 9 9 9 8 8 8 9 9 7 7 6 5 5 6 5 4 4 5 5 7 7 8 8 6 7 8
Wind_Direction
328 10 95 41 45 60 249 243 263 140 173 189 110 118 121 121 135 201 51 64 105 110 110 94 121 120 110 111 111 108 110 114 114 117 116 114 118 122 124 130 134 139 143 148 153 155 157 141 124
330 113 49 75 83 50 271 246 202 208 142 121 75 66 54 74 83 104 93 87 81 93 84 98 107 113 131 119 104 102 101 104 108 111 117 124 130 135 138 141 145 146 152 156 155 154 152 145 141
155 48 80 88 104 162 226 259 78 142 164 60 107 58 97 55 68 98 68 96 83 69 60 56 50 85 112 107 112 106 112 116 119 119 126 134 146 153 153 158 163 168 172 172 168 163 163 155 155
46 13 33 85 232 261 202 273 159 121 343 76 109 80 80 347 2 55 80 77 71 59 59 51 50 50 50 78 82 97 112 128 134 138 142 152 164 172 174 181 186 189 196 201 194 174 185 189 177
36 51 56 68 279 273 264 231 135 154 82 83 47 110 65 37 47 52 58 68 77 58 43 46 40 51 44 50 50 35 21 15 25 34 56 154 191 210 210 215 222 225 223 217 210 201 197 210 207
36 91 65 223 251 265 280 237 139 151 111 134 95 93 79 37 53 54 63 66 64 67 50 45 43 44 43 41 39 37 35 33 30 26 18 7 354 340 316 283 259 254 254 257 254 232 214 211 220
113 85 196 193 258 306 282 332 150 144 140 103 137 84 92 60 79 71 68 67 69 65 67 56 46 46 52 52 64 57 55 53 47 40 28 26 19 18 12 15 20 12 308 285 283 281 255 236 216
106 90 144 244 222 265 330 45 126 120 110 138 69 150 177 154 118 86 66 57 56 44 41 32 41 44 56 55 62 69 59 53 46 43 35 33 34 27 51 49 39 33 26 5 336 304 290 276 237
116 62 215 241 168 264 1 106 57 76 104 59 4 89 126 134 134 103 82 52 50 50 40 31 35 40 53 65 63 63 57 52 44 46 52 50 36 26 35 36 37 36 41 35 22 15 332 286 250
88 116 221 220 217 238 4 156 175 114 123 58 76 94 116 134 132 117 107 89 69 46 34 26 44 51 62 72 67 63 55 48 33 33 48 56 45 37 27 26 23 17 11 24 11 359 351 344 298
141 184 239 263 241 233 261 164 187 128 249 199 165 151 131 130 123 115 97 100 99 61 45 27 35 39 56 62 61 62 58 44 35 27 29 59 56 35 29 21 13 5 1 3 5 357 2 342 322
296 249 225 287 16 337 261 112 95 157 214 149 152 148 140 150 146 136 133 131 117 88 67 50 43 60 59 67 58 56 62 50 47 26 14 36 50 55 47 30 16 11 1 3 360 351 334 344 337
180 283 306 305 309 233 311 262 199 235 104 118 128 142 150 149 145 124 118 114 120 103 89 60 76 76 75 76 72 62 56 47 34 34 28 31 42 41 35 31 20 20 2 0 353 346 349 336 324
321 283 279 295 287 276 207 256 80 75 128 129 146 162 162 151 144 121 134 139 132 119 99 94 82 85 84 76 70 71 64 53 51 39 27 29 32 31 35 25 17 12 9 357 349 347 342 332 335
307 311 316 247 238 234 143 293 215 160 151 153 166 156 122 122 134 159 159 145 140 124 111 97 89 80 84 82 77 67 63 67 58 48 42 39 36 31 27 22 12 1 355 351 351 354 342 344 338
350 54 301 285 156 290 155 251 247 174 159 183 162 151 149 164 166 156 138 125 125 109 95 79 90 87 84 84 78 75 63 61 54 42 35 35 32 28 26 18 11 351 356 2 353 352 342 347 343
359 250 222 310 204 167 162 271 342 178 181 185 177 167 163 150 132 133 132 132 119 109 102 83 82 91 95 84 78 68 61 56 53 51 40 30 32 25 29 26 11 355 1 9 355 344 352 330 340
226 241 250 243 249 100 231 262 271 168 197 202 172 150 157 167 173 146 120 102 96 91 87 92 87 88 89 87 85 74 62 63 55 50 45 39 34 29 27 23 9 6 17 360 358 351 341 326 335
160 213 271 260 260 341 239 247 273 185 177 165 175 173 178 173 143 128 114 105 95 68 78 64 82 66 83 78 88 71 62 56 48 49 47 39 34 29 33 24 16 10 13 354 0 340 346 336 347
231 249 265 294 267 182 271 259 265 184 207 193 183 181 179 152 165 151 131 112 83 92 72 69 72 69 72 94 104 113 102 59 67 41 47 40 31 25 28 22 15 11 9 13 14 9 345 332 356
229 204 218 222 318 299 314 277 242 258 207 180 189 193 180 176 166 160 145 126 108 92 93 92 84 86 78 96 103 82 83 62 40 8 32 30 35 28 27 26 19 11 12 9 4 12 12 354 326
243 204 214 240 164 240 163 282 241 245 260 200 177 175 173 170 162 149 134 126 124 123 108 95 78 67 60 53 68 84 92 90 44 19 13 24 31 32 29 29 25 13 7 13 2 9 12 359 5
229 194 194 197 188 23 209 275 258 22 269 247 180 196 182 161 148 139 140 142 133 137 126 100 89 75 70 76 84 90 97 98 92 48 47 27 24 28 28 28 17 16 9 4 13 16 16 10 5
54 76 60 62 107 247 174 172 276 215 249 346 1 139 137 134 134 132 134 137 141 135 116 104 98 96 97 100 90 99 112 117 102 74 62 47 27 21 23 23 12 7 11 16 17 20 26 7 22
154 98 272 269 172 241 180 191 254 329 338 264 285 136 143 144 143 146 153 163 159 158 155 145 141 139 133 118 118 127 124 121 116 110 83 58 31 33 18 26 11 9 3 30 27 28 19 6 27
201 179 188 195 192 234 115 231 250 301 350 350 59 124 135 144 156 158 167 169 170 172 171 163 149 140 138 128 121 117 115 122 111 105 101 98 80 46 28 22 20 30 8 29 36 40 20 12 8
205 202 229 293 138 78 208 271 274 120 19 52 110 129 149 158 169 175 184 179 175 167 169 160 139 134 122 121 119 114 112 108 105 96 89 78 65 76 26 25 11 32 28 34 33 29 37 10 2
187 163 129 258 222 240 230 238 214 200 215 182 179 177 178 179 183 190 186 177 167 161 153 134 130 139 129 134 135 129 112 116 109 96 101 88 78 72 30 21 23 22 34 40 38 37 21 24 7
155 203 202 145 183 236 253 261 233 179 194 199 205 203 196 196 200 193 179 171 161 152 149 142 141 142 141 149 138 127 128 112 91 99 98 85 69 67 57 34 35 28 46 40 35 40 32 14 18
69 29 39 208 230 272 186 254 23 37 301 217 241 204 202 212 204 191 169 158 155 153 143 151 143 141 141 146 131 130 126 123 118 112 93 96 93 57 40 37 69 58 47 39 40 40 29 20 13